COSMOS 292

Satellite information

Favourite Embed

Satellite Type and Status

PAYLOADIN ORBIT

Key statistics

Satellite COSMOS 292 at a glance.

Uptime

20530

Days in orbit

Revolutions

≈ 14.6

Per day

Orbit

LEO

Low Earth Orbit

Inclination

74.1

Latest

Satellite identification and parameters

Extended collection of information and parameters for COSMOS 292.

Object identification

Identified? True

Debris? False

Object name: COSMOS 292

International designator: 1969-070A

Object number (NORAD): 4070

Object ID (CCSDS): 4070

Country: COMMONWEALTH OF INDEPENDENT STATES (CIS)

Current information (Y/N): Y

RCS size: LARGE

Orbital parameters

Period: 98.951 minutes

Inclination: 74.0501 deg

SMA: 7086.646 km

Apoapsis: 715.007 km

Periapsis: 702.016 km

RAAN: 27.0725 deg

Eccentricy: 0.00091659

Argument of periapsis: 37.944 deg

Mean anomaly: 322.2368 deg

Mean motion: 14.5526351 rev/day

Mean motion (dot): 0.00000479 rev/day2

B* drag term: 0.0001172443 1/REarth

Two-line elements (TLE)

Creation date: Oct. 27, 2025, 2:46 a.m.

Reference frame: TEME

Reference center: EARTH

Epoch: Oct. 26, 2025, 5:18 p.m. UTC

TLE line 0: 0 COSMOS 292

TLE line 1: 1 04070U 69070A 25299.72150404 .00000479 00000-0 11724-3 0 9991

TLE line 2: 2 04070 74.0501 27.0725 0009166 37.9440 322.2368 14.55263510972154

Live tracking on map

Real-time ground track for satellite COSMOS 292.

In-orbit conjunctions

A list of the most updated potential collisions computed for object COSMOS 292.

Target Orbit TCA Probability of collision Miss distance Type
CZ-6A DEB LEO 2025-07-19 04:38:46 0.001080101 421.0 (m) DEBRIS
FENGYUN 1C DEB SSO 2025-04-16 05:11:53 0.0001455469 699.0 (m) DEBRIS

Associated space launch

The first soviet navigation system called Tsiklon consisted of Zaliv satellites in low earth orbit.

COSMOS 292 was lifted into orbit during the mission ‘Kosmos-3M | Zaliv 3’, on board a Kosmos-3M space rocket.

The launch took place on Aug. 13, 1969, 10 p.m. from 132/2.

For more information about the launch, click the button.

Launch to space Kosmos-3M | Zaliv 3
Kosmos-3M | Zaliv 3

Agency: N/A

Status: Launch Successful

Launch date: Aug. 13, 1969, 10 p.m. UTC

Rocket: Kosmos-3M

Launch pad: 132/2

Location: Plesetsk Cosmodrome, Russian Federation

...

Latest news about this satellite

There are no fresh news available about this satellite. Check back as we update our databases every day.


Newsletter sign-up

Weekly statistics, charts and insights to help you stay on top of the space industry.